Regional Weather Roundup
Issued by NWS Charleston, SC

Current Version | Previous Version | Graphics & Text | Print | Product List | Glossary On
Versions: 1 2 3 4 5 6 7 8 9 10 11 12 13 14 15 16 17 18 19 20 21 22 23 24 25 26 27 28 29 30 31 32 33 34 35 36 37 38 39 40 41 42 43 44 45 46 47 48 49 50
000
ASUS42 KCHS 250412
RWRCHS

REGIONAL WEATHER ROUNDUP
NATIONAL WEATHER SERVICE CHARLESTON SC
1200 AM EDT THU MAY 25 2017

NOTE: "FAIR" INDICATES FEW OR NO CLOUDS BELOW 12,000 FEET WITH NO
SIGNIFICANT WEATHER AND/OR OBSTRUCTIONS TO VISIBILITY.

NOT ALL STATIONS ARE QUALITY CONTROLLED. USE DATA WITH CAUTION...
ESPECIALLY DEWPOINT OBSERVATIONS.

SCZ027-030-031-034>040-042>050-250500-
...SOUTHEAST SOUTH CAROLINA...

CITY           SKY/WX    TMP DP  RH WIND       PRES   REMARKS
N CHARLESTON   CLOUDY    73  65  75 SW22G28   29.57R
WATERFRONT PRK   N/A     76  69  79 SW12G18   29.55R
JOHNS ISLAND   FAIR      73  66  78 SW9G15    29.59R
PINOPOLIS        N/A     70  66  88 VRB3      29.48
MONCKS CORNER  FAIR      66  66 100 CALM      29.57R
SUMMERVILLE    FAIR      68  66  94 CALM      29.57R
BEAUFORT MCAS  CLOUDY    71  68  90 S10G18    29.59R
BEAUFORT ARPT  FAIR      70  66  88 SW6       29.60R
HILTON HEAD IS CLOUDY    72  68  88 VRB7      29.61R
WALTERBORO     CLOUDY    68  66  94 S7        29.57S
ALLENDALE      MOCLDY    66  66 100 VRB3      29.55R

...SOUTHERN MIDLANDS AND PEE DEE...

CITY           SKY/WX    TMP DP  RH WIND       PRES   REMARKS
GEORGETOWN     LGT RAIN  70  70 100 S5        29.58R
KINGSTREE      CLOUDY   N/A N/A N/A S6        29.55R
ORANGEBURG     CLOUDY    66  64  93 S7        29.55R
BARNWELL       MOCLDY    66  66 100 SW17G23   29.57R
AIKEN          CLOUDY    59  59 100 SW7       29.59R
MANNING        FAIR      72  68  88 SW23      29.55R
COLUMBIA       CLOUDY    68  64  87 SW6       29.53R
SUMTER         CLOUDY    67  64  92 S5        29.52R
FLORENCE       LGT RAIN  70  70 100 S10       29.53F
MYRTLE BEACH   NOT AVBL
N MYRTLE BEACH LGT RAIN  75  72  90 S17G24    29.57S

$$

GAZ063-065-086>088-099>101-113>116-118-119-134>141-150-250500-
...SOUTHEAST GEORGIA...

CITY           SKY/WX    TMP DP  RH WIND       PRES   REMARKS
SAVANNAH ARPT  CLOUDY    69  65  86 S10       29.59R
HUNTER AAF     CLOUDY    69  69 100 S5        29.58R
FORT STEWART   CLOUDY    68  65  91 SW7       29.59R
STATESBORO     CLOUDY    68  68 100 SW5       29.59R
SYLVANIA       CLOUDY    68  68 100 W3        29.59R
CLAXTON        FAIR     N/A N/A N/A S5        29.59R

...CSRA...CENTRAL AND FAR SOUTHEAST GEORGIA...

CITY           SKY/WX    TMP DP  RH WIND       PRES   REMARKS
THOMSON        PTCLDY    67  65  94 NW7       29.60R
AUGUSTA-BUSH   CLOUDY    64  62  93 S5        29.55S
AUGUSTA-DANIEL PTCLDY    64  60  87 S8        29.56R
SWAINSBORO     LGT RAIN  66  66 100 CALM      29.59R
VIDALIA        NOT AVBL
EASTMAN        CLOUDY    67  65  94 W5        29.62R
HAZLEHURST     MOCLDY    64  64 100 S3        29.60F FOG
ALMA           MOCLDY    71  67  87 SW12G21   29.63R
WAYCROSS       PTCLDY    72  72 100 SW10      29.64R
JESUP          CLOUDY    70  64  83 SW8       29.63R
BAXLEY         RAIN      70  70 100 W16G29    29.63R
BRUNSWICK      NOT AVBL
SAINT SIMONS   MOCLDY    73  69  87 SW16G25   29.64R

$$

SCZ027-028-034-036>038-045-046-048>050-GAZ119-141-250500-
...LAKE AND SUPPLEMENTAL COASTAL OBSERVATIONS...

STATION/POSITION TIME  TEMP    WIND        PRES    WAVE   SWELL
                       AIR SEA DIR/SP/G            HT/PER HT/PER/DIR
                 (UTC) (F)     (DEG/KT/KT) (MB)    (FT/S) (FT/S/D)
WINYAH BAY       NOT AVBL
LAKE MURRAY      0320   70     220/ 11/ 14  999.0
ACE BASIN NERRS  0245   73     180/  1     1001.0
FORT PULASKI     0348   72     220/  8/ 11 1002.6R
SAPELO ISLAND    0300   73     210/ 16     1002.0

$$

ANZ835-935-AMZ111-154-330-350-352-354-370-450-454-472-250500-
...C-MAN AND BUOY OBSERVATIONS...

STATION/POSITION TIME  TEMP    WIND        PRES    WAVE   SWELL
                       AIR SEA DIR/SP/G            HT/PER HT/PER/DIR
                 (UTC) (F)     (DEG/KT/KT) (MB)    (FT/S) (FT/S/D)
BUOY 41004       0350   74 76  210/ 25/ 29 1002.4R   7/ 7   2/140/13
BUOY 41008       0250   76 78  210/ 23/ 29 1001.9    5/ 6   2/180/12
FOLLY BEACH CMAN 0300   77     210/ 21/ 25 1002.0R
CAPERS NEARSHORE 0308   79 77  190/ 19/ 25 1000.7F
FRIPP NEARSHORE  0308   74 78  240/ 16/ 19 1000.8R


STATION/POSITION TIME  TEMP    WIND        PRES    WAVE   SWELL
                       AIR SEA DIR/SP/G            HT/PER HT/PER/DIR
                 (UTC) (F)     (DEG/KT/KT) (MB)    (FT/S) (FT/S/D)
5E ST. MARYS GA  0330      78                N/A     4/ 6
FRYING PAN BUOY  0350   75 77  170/ 23/ 29 1002.5F   7/ 7   2/ 80/11
BUOY 41025       0350   74 75  170/ 16/ 19 1005.2F   6/ 6   2/180/ 8
CAPE LOOKOUT NC  0300   73     160/ 21/ 23 1003.7F
BUOY 41002       0350   78 77  170/ 23/ 31 1009.2R   9/ 8
BUOY 41010       0350   80 78  220/ 21/ 27 1009.0F  11/ 8
ST AUGUSTINE FL  0400   72 77  190/  7/  8 1006.6R


$$



USA.gov is the U.S. government's official web portal to all federal, state and local government web resources and services.